Regional Weather Roundup
Issued by NWS

Home | Current Version | Previous Version | Text Only | Print | Product List | Glossary Off
Versions: 1 2 3 4 5 6 7 8 9 10 11 12 13 14 15 16 17 18 19 20 21 22 23 24 25 26 27 28 29 30 31 32 33 34 35 36 37 38 39 40 41 42 43 44 45 46 47 48 49 50

000
ASUS43 KDMX 221801
RWRIA

WEATHER ROUNDUP FOR IOWA
NATIONAL WEATHER SERVICE DES MOINES IA
1200 PM CST THU FEB 22 2018

NOTE: "FAIR" INDICATES FEW OR NO CLOUDS BELOW 12,000 FEET WITH NO
SIGNIFICANT WEATHER AND/OR OBSTRUCTIONS TO VISIBILITY.

* - THESE STATIONS ARE NOT NWS STATIONS...THUS NOT UNDER NWS
QUALITY CONTROL.  THEY ALSO DO NOT REPORT WEATHER SUCH
AS PRECIPITATION OR FOG.

IAZ001>003-012>014-020>022-031>034-043>046-221900-
   NORTHWEST IOWA

CITY           SKY/WX    TMP DP  RH WIND       PRES   REMARKS
CARROLL *      MIX PCPN  27  25  93 SE15      30.37F WCI  15
CHEROKEE *     CLOUDY    27  22  82 E7        30.39F WCI  19
DENISON *      CLOUDY    27  25  93 SE8       30.38F FOG     WCI  18
LE MARS *      CLOUDY    27  19  74 VRB7      30.38F WCI  19
ORANGE CITY *  CLOUDY    28  21  74 E6        30.37F WCI  22
SHELDON *      CLOUDY    25  23  93 E10       30.38F WCI  15
SIOUX CITY     CLOUDY    25  21  85 E9        30.37F WCI  15
6HR MIN TEMP:  20; 6HR MAX TEMP:  26;

SPENCER        MIX PCPN  28  20  71 E14       30.40F WCI  17
6HR MIN TEMP:  19; 6HR MAX TEMP:  29; 6HR PCP: TRACE;

STORM LAKE *   CLOUDY    25  19  80 E15       30.36F WCI  12
$$

IAZ055>058-069>071-079>083-090>094-221900-
   SOUTHWEST IOWA

CITY           SKY/WX    TMP DP  RH WIND       PRES   REMARKS
ATLANTIC *     CLOUDY    27  27 100 SE8       30.35F FOG     WCI  18
AUDUBON *      LGT SNOW  27  23  86 CALM      30.37S
CLARINDA *     CLOUDY    28  30 100 SE5       30.39F FOG     WCI  23
COUNCIL BLFS * CLOUDY    27  27 100 E8        30.33F WCI  18
CRESTON *      CLOUDY    28  27  93 E13       30.36F FOG     WCI  18
HARLAN  *      FLURRIES  27  27 100 E9        30.38F WCI  17
LAMONI         FRZ RAIN  29  27  92 E9        30.36F VSB 1   WCI  20
6HR MIN TEMP:  25; 6HR MAX TEMP:  29; 6HR PCP:  0.03;

RED OAK *      MIX PCPN  28  27  93 SE9       30.37F WCI  20
SHENANDOAH *   CLOUDY    28  28 100 E9        30.37F FOG     WCI  20
$$

IAZ047>049-059>061-072>074-084-221900-
   CENTRAL IOWA

CITY           SKY/WX    TMP DP  RH WIND       PRES   REMARKS
AMES           CLOUDY    29  24  82 E8        30.41F HAZE    WCI  21
6HR MIN TEMP:  23; 6HR MAX TEMP:  29; 6HR PCP: TRACE;

ANKENY *       CLOUDY    28  27  93 E12       30.41F FOG     WCI  18
BOONE *        CLOUDY    28  27  93 E14       30.39F WCI  17
CHARITON *     MIX PCPN  28  28 100 E10       30.39F VSB 1/2 WCI  19
DES MOINES     FRZ DRZL  28  24  85 E13       30.40F FOG     WCI  17
6HR MIN TEMP:  25; 6HR MAX TEMP:  29; 6HR PCP:  0.02;

GRINNELL*      CLOUDY    31  25  78 E13       30.42F WCI  21
KNOXVILLE *    FOG       30  28  93 SE8       30.40S VSB 1   WCI  23
MARSHALLTOWN   CLOUDY    31  23  72 E14       30.41F WCI  21
6HR MIN TEMP:  24; 6HR MAX TEMP:  31;

NEWTON *       CLOUDY    30  25  80 SE8G15    30.42S WCI  23
PELLA *        CLOUDY    30  28  90 E8        30.43S FOG     WCI  22
$$

IAZ004>006-015-016-023>025-035-036-221900-
   NORTH CENTRAL IOWA

CITY           SKY/WX    TMP DP  RH WIND       PRES   REMARKS
CLARION *      CLOUDY    28  25  86 E15       30.40F WCI  17
ESTHERVILLE    CLOUDY    24  21  88 E10       30.41F WCI  14
6HR MIN TEMP:  16; 6HR MAX TEMP:  24; 6HR PCP: TRACE;

FORT DODGE *   FLURRIES  27  22  81 E13       30.40F WCI  16
MASON CITY     CLOUDY    27  19  72 E9        30.43F WCI  18
6HR MIN TEMP:  21; 6HR MAX TEMP:  27;

FOREST CITY *  CLOUDY    30  23  74 E8        30.43F WCI  23
WEBSTER CITY * CLOUDY    28  23  80 SE13      30.38F WCI  18
IOWA FALLS *   CLOUDY    30  23  75 E13       30.42F WCI  20
$$

IAZ007>011-017>019-026>030-037>042-050>054-066-221900-
   NORTHEAST IOWA

CITY           SKY/WX    TMP DP  RH WIND       PRES   REMARKS
CEDAR RAPIDS   LGT RAIN  34  25  69 E17       30.43F WCI  23
6HR MIN TEMP:  26; 6HR MAX TEMP:  34; 6HR PCP: TRACE;

CHARLES CITY * FAIR      30  18  59 E12       30.45F WCI  21
CLINTON *      CLOUDY    34  27  75 E18       30.47F WCI  23
DECORAH *      CLOUDY    30  16  55 E10       30.47F WCI  21
DUBUQUE        CLOUDY    30  21  69 E15       30.47F WCI  19
6HR MIN TEMP:  24; 6HR MAX TEMP:  30;

MONTICELLO *   PTSUNNY   34  23  64 E9G16     30.45F WCI  26
OELWEIN *      PTSUNNY   30  23  74 E12       30.44F WCI  21
WATERLOO       CLOUDY    30  20  66 E15       30.43F WCI  19
6HR MIN TEMP:  23; 6HR MAX TEMP:  31;

$$

IAZ064-065-067-068-078-221900-
   EAST CENTRAL IOWA

CITY           SKY/WX    TMP DP  RH WIND       PRES   REMARKS
DAVENPORT      CLOUDY    35  27  72 E17       30.47F WCI  25
6HR MIN TEMP:  28; 6HR MAX TEMP:  35;

IOWA CITY      CLOUDY    36  25  64 E13       30.45F WCI  27
6HR MIN TEMP:  28; 6HR MAX TEMP:  36;

MT. PLEASANT * CLOUDY    32  32 100 E14       30.42F FOG     WCI  22
MUSCATINE *    CLOUDY    36  28  75 E12       30.45F WCI  27
QUAD CITIES    CLOUDY    38  29  70 E18       30.44F WCI  28
6HR MIN TEMP:  29; 6HR MAX TEMP:  38;

$$

IAZ062-063-075>077-085>089-095>099-221900-
   SOUTHEAST IOWA

CITY           SKY/WX    TMP DP  RH WIND       PRES   REMARKS
BURLINGTON     CLOUDY    35  32  88 E8        30.42F WCI  29
6HR MIN TEMP:  28; 6HR MAX TEMP:  35; 6HR PCP:  0.01;

FAIRFIELD *    CLOUDY    32  30  93 E13       30.41F FOG     WCI  22
FORT MADISON * CLOUDY    34  34 100 E8        30.41F FOG     WCI  27
KEOKUK *       CLOUDY    34  32  93 E10       30.40F FOG     WCI  26
OSKALOOSA *    CLOUDY    30  29  96 E12       30.41F FOG     WCI  21
OTTUMWA        CLOUDY    31  28  89 E17       30.40F FOG     WCI  19
6HR MIN TEMP:  27; 6HR MAX TEMP:  31; 6HR PCP: TRACE;

WASHINGTON *   CLOUDY    32  32 100 E12       30.44F FOG     WCI  23
$$

ABBREVIATIONS USED IN REMARKS
   TC - TEMPERATURES IN CELSIUS
  WCI - WIND CHILL INDEX
   HX - HEAT INDEX
  VSB - VISIBILITY
$$




USA.gov is the U.S. government's official web portal to all federal, state and local government web resources and services.